Location: Palo Alto
(37.4420°N, 122.1420°W)
Time: 09:02:43
(UTC-07:00)

ARGOS - Visible Passes

Search period start: 28 May 2016 00:00
Search period end: 07 June 2016 00:00
Orbit: 821 x 834 km, 98.7° (Epoch: 27 May)

Date Brightness Start Highest point End Pass type
(mag) Time Alt. Az. Time Alt. Az. Time Alt. Az.
28 May 3.8 21:55:57 24° ESE 21:58:36 39° ENE 22:03:37 10° N visible
28 May 4.8 23:37:29 22° WSW 23:38:54 24° W 23:43:17 10° NW visible
29 May 4.4 21:37:09 16° ESE 21:40:13 27° ENE 21:44:42 10° N visible
29 May 4.2 23:18:40 30° SW 23:20:15 36° W 23:25:14 10° NNW visible
30 May 4.8 21:18:20 10° ESE 21:21:53 19° ENE 21:25:33 10° NNE visible
30 May 3.6 22:59:51 38° SSW 23:01:38 54° W 23:06:58 10° NNW visible
31 May 5.2 21:01:21 10° E 21:03:36 13° ENE 21:05:53 10° NE visible
31 May 3.1 22:41:02 40° S 22:43:05 82° WSW 22:48:33 10° NNW visible
01 Jun 3.2 22:22:13 34° SSE 22:24:35 68° ENE 22:29:59 10° N visible
02 Jun 5.4 00:03:44 12° WSW 00:05:16 13° W 00:07:52 10° WNW visible
02 Jun 3.6 22:03:25 26° SE 22:06:08 46° ENE 22:11:18 10° N visible
02 Jun 5.0 23:44:56 18° WSW 23:46:32 21° W 23:50:33 10° NW visible
03 Jun 4.2 21:44:37 18° ESE 21:47:44 31° ENE 21:52:27 10° N visible
03 Jun 4.5 23:26:07 25° SW 23:27:52 31° W 23:32:38 10° NW visible
04 Jun 4.6 21:25:48 12° ESE 21:29:23 22° ENE 21:33:25 10° NNE visible
04 Jun 3.9 23:07:20 33° SSW 23:09:15 46° W 23:14:28 10° NNW visible
05 Jun 5.0 21:08:07 10° E 21:11:04 15° ENE 21:14:01 10° NNE visible
05 Jun 3.3 22:48:31 37° S 22:50:41 69° WSW 22:56:06 10° NNW visible
06 Jun 3.1 22:29:43 34° SSE 22:32:09 81° ENE 22:37:36 10° N visible
